Location: Unspecified
(43.4680°N, 87.1740°E)
Time: 19:42:02
(UTC+00:00)

Cosmos 2366 rocket - Pass Details

Date: 17 January 2020
Orbit: 956 x 996 km, 82.9° (Epoch: 21 February)

Event Time Altitude Azimuth Distance (km) Brightness Sun altitude
Rises 13:43:37 0° 192° (SSW) 3,630 7.2 -28.9°
Reaches altitude 10° 13:46:06 10° 195° (SSW) 2,692 6.5 -29.3°
Maximum altitude 13:52:15 72° 279° (W) 1,021 4.1 -30.4°
Enters shadow 13:55:19 32° 356° (N) 1,617 5.1 -31.0°
